Showing default

BEIDOU 3M16, 43648

Orbit data source: Space-Track

BEIDOU 3M16, 43648 is a payload satellite owned by CNSA (CN) in MEO that was launched on Mon, 15 Oct 2018 UTC via a CHANG ZHENG 3B/YZ-1 launch vehicle from the Xichang Space Center, China (XSC). Payloads include a variety of satellites, spacecraft, and rockets equipped with specific instruments for various scientific and technological missions. These include communications satellites like Starlink; space stations such as the ISS; scientific satellites like the Hubble; Earth observation satellites from companies like Planet Labs, Umbra, and HawkEye 360; GPS; miniature CubeSats for education and research; and military/defense satellites.

Loading next visibility...
BEIDOU 3M16 details
Identifier
43648, 2018-078B
Orbit
MEO
Last TLE update17 hours ago
Origin
Flag of CNCNSA (CN / PRC)
ManufacturerSECM
MissionOperational Defense Navigation
Bus & MotorBD-3M/SAR, Unknown motor
Mass1,014 kg wet, ~850 kg dry
Launch date (UTC)
2018-10-15 (6 years ago)
Launch vehicle
CHANG ZHENG 3B/YZ-1
Launch site
Xichang Space Center, China (XSC)
Object type
Payload
Rocket body
Debris
Shape & HBRBox + 2 Pan, 10 m
Radar Cross Section8.984 m², Large (>1 m²)

Expand to show TLE details & history

TLE from 17 hours ago
0 BEIDOU 3M16
1 43648U 18078B   24361.12648448 -.00000088  00000-0  00000-0 0  9999
2 43648  54.5616 318.7792 0004208   8.9952 351.0058  1.86232198 42152
Epoch: 2024-12-26T03:02Z
Definitive object data (Epoch: 2024-12-26T03:02:08.259Z)
Latitude0.00001°
Longitude178.11507°
Altitude21,516.613 km
Speed3.781 km/s
True Right ascension21h 15m 02s
True Declination0° 00' 00"
Sunlit
Object was in daylight at TLE epoch
Visualization TLE readout
Latitude44.62479°
Longitude-46.44471°
Altitude21,537.404 km
Speed3.779 km/s
Apparent Right ascension06h 32m 27s
Apparent Declination32° 18' 30"
Sunlit
Object is in daylight
Visualization observer readout
Local Sidereal Time19:36:46
Azimuth14.114° NNE
Elevation-16.256°
Doppler factor1
Orbital elements
Apogee altitude21,539.699 km
Perigee altitude21,516.213 km
Semi-major axis27,906.093 km
Eccentricity0.0004208
Inclination54.5616°
RAAN318.7792°
Arg. of periapsis8.9952°
True anomaly350.99826°
Mean anomaly351.0058°
Eccentric anomaly351.00203°
Mean motion0.46558 °/min
BSTARUnknown
Orbital period773.23 mins
Loading maneuver chart data...
Loading historical data...
Loading historical data...
Loading historical data...
Loading historical data...
Loading historical data...
Loading historical data...
Loading historical data...
Other satellites on launch #78 in the year 2018 (2018-10-15 UTC)

BEIDOU 3M16 Visibility forecast

Observer location: undefined°, undefined

Span
Click to sort rows by Start time (UTC) header in descending order
Start Az.
Max El. time (UTC)
Max El. Az.
Max El.
End time (UTC)
End Az.
332 mins2024-12-27 06:48:59.215Z306.858° NW2024-12-27 09:38:59.215Z265.67° W41.391°2024-12-27 12:20:59.215Z198.701° SSW
143 mins2024-12-27 17:50:59.215Z106.142° ESE2024-12-27 19:27:59.215Z67.967° E23.513°2024-12-27 20:13:59.215Z49.563° ENE
|